Erzurum, Turkey

11:00 PM +03 on May 25, 2018 (GMT +0300)
Erzurum

Weather History for LTCE - September, 2013

Change the Weather History Date:

Saturday, September 7, 2013

  Actual Average Record
Temperature  
Mean Temperature 54 °F -  
Max Temperature 74 °F 69 °F 87 °F (2007)
Min Temperature 34 °F 43 °F 30 °F (1998)
Degree Days  
Heating Degree Days 11    
Growing Degree Days 4 (Base 50)    
Moisture  
Dew Point 29 °F    
Average Humidity 41    
Maximum Humidity 87    
Minimum Humidity 7    
Precipitation  
Precipitation 0.00 in 0.04 in - ()
Sea Level Pressure  
Sea Level Pressure 30.11 in    
Wind  
Wind Speed 5 mph ()    
Max Wind Speed 22 mph    
Max Gust Speed -    
Visibility 7.4 miles    
Events      
Averages and records for this station are not official NWS values.
T = Trace of Precipitation, MM = Missing Value Source: Averaged Metar Reports

Daily Weather History Graph

Daily Weather History Graph

Search for Another Location

Airport or City:

Astronomy

Sep. 07, 2013 Rise Set
Actual Time 5:48 AM EEST 6:37 PM EEST
Civil Twilight 5:21 AM EEST 7:04 PM EEST
Nautical Twilight 4:48 AM EEST 7:37 PM EEST
Astronomical Twilight 4:14 AM EEST 8:10 PM EEST
Moon 7:40 AM EEST (9/7) 7:23 PM EEST (9/7)
Length of Visible Light 13h 43m
Length of Day
12h 48m
Waxing Crescent, 4% of the Moon is Illuminated
Sep 7
Waxing Crescent
Sep 12
First Quarter
Sep 19
Full
Sep 27
Last Quarter
Oct 5
New

Hourly Weather History & Observations

Time (EEST) Temp. Windchill Dew Point Humidity Pressure Visibility Wind Dir Wind Speed Gust Speed Precip Events Conditions
12:20 AM 44.6 °F - 26.6 °F 49% 30.09 in - NE 2.3 mph - N/A   Clear
12:50 AM 42.8 °F - 28.4 °F 57% 30.09 in - Calm Calm - N/A   Clear
1:20 AM 41.0 °F 39.0 °F 28.4 °F 61% 30.09 in - East 3.5 mph - N/A   Clear
1:50 AM 44.6 °F 43.1 °F 30.2 °F 57% 30.12 in - ENE 3.5 mph - N/A   Clear
2:20 AM 46.4 °F 43.5 °F 35.6 °F 66% 30.12 in - East 5.8 mph - N/A   Clear
2:50 AM 44.6 °F 42.2 °F 37.4 °F 76% 30.12 in - East 4.6 mph - N/A   Clear
3:20 AM 39.2 °F - 33.8 °F 81% 30.12 in - Variable 2.3 mph - N/A   Clear
3:50 AM 39.2 °F - 35.6 °F 87% 30.12 in - Variable 2.3 mph - N/A   Clear
4:20 AM 39.2 °F - 33.8 °F 81% 30.12 in - Variable 2.3 mph - N/A   Clear
4:50 AM 37.4 °F - 30.2 °F 75% 30.12 in - Variable 2.3 mph - N/A   Clear
5:20 AM 35.6 °F - 32.0 °F 87% 30.12 in - Calm Calm - N/A   Clear
5:50 AM 35.6 °F - 32.0 °F 87% 30.15 in - Calm Calm - N/A   Clear
6:20 AM 37.4 °F - 32.0 °F 81% 30.15 in - Variable 2.3 mph - N/A   Clear
6:50 AM 39.2 °F - 33.8 °F 81% 30.15 in - Variable 2.3 mph - N/A   Clear
7:50 AM 50.0 °F - 35.6 °F 58% 30.15 in - Calm Calm - N/A   Clear
8:20 AM 53.6 °F - 37.4 °F 54% 30.15 in - Variable 2.3 mph - N/A   Clear
8:50 AM 55.4 °F - 37.4 °F 51% 30.15 in - NE 4.6 mph - N/A   Clear
9:00 AM 57 °F - 36 °F 34%  in 12 mi NNE 2.3 mph - -  
9:20 AM 59.0 °F - 35.6 °F 42% 30.15 in - West 2.3 mph - N/A   Clear
9:50 AM 60.8 °F - 35.6 °F 39% 30.15 in - West 3.5 mph - N/A   Clear
10:20 AM 62.6 °F - 33.8 °F 34% 30.15 in - WNW 4.6 mph - N/A   Clear
10:50 AM 64.4 °F - 30.2 °F 28% 30.15 in - Variable 5.8 mph - N/A   Clear
11:20 AM 66.2 °F - 30.2 °F 26% 30.12 in - West 6.9 mph - N/A   Clear
11:50 AM 68.0 °F - 32.0 °F 26% 30.12 in - WNW 8.1 mph - N/A   Clear
12:20 PM 69.8 °F - 32.0 °F 25% 30.12 in - SW 4.6 mph - N/A   Clear
12:50 PM 69.8 °F - 28.4 °F 21% 30.12 in - West 11.5 mph - N/A   Clear
1:20 PM 71.6 °F - 26.6 °F 19% 30.09 in - Variable 6.9 mph - N/A   Clear
1:50 PM 73.4 °F - 21.2 °F 14% 30.09 in 6.2 mi West 19.6 mph - N/A   Partly Cloudy
2:20 PM 73.4 °F - 21.2 °F 14% 30.09 in 6.2 mi West 21.9 mph - N/A   Partly Cloudy
2:50 PM 73.4 °F - 21.2 °F 14% 30.09 in 6.2 mi West 19.6 mph - N/A   Partly Cloudy
3:00 PM 73 °F - 21 °F 7%  in 12 mi West 19.6 mph - -   Scattered Clouds
3:20 PM 73.4 °F - 21.2 °F 14% 30.09 in 6.2 mi West 17.3 mph - N/A   Partly Cloudy
3:50 PM 73.4 °F - 21.2 °F 14% 30.06 in 6.2 mi West 18.4 mph - N/A   Partly Cloudy
4:20 PM 73.4 °F - 21.2 °F 14% 30.06 in 6.2 mi West 18.4 mph - N/A   Partly Cloudy
4:50 PM 73.4 °F - 21.2 °F 14% 30.06 in 6.2 mi West 16.1 mph - N/A   Partly Cloudy
5:20 PM 71.6 °F - 21.2 °F 15% 30.06 in 6.2 mi WNW 17.3 mph - N/A   Partly Cloudy
5:50 PM 71.6 °F - 21.2 °F 15% 30.06 in 6.2 mi WNW 16.1 mph - N/A   Partly Cloudy
6:20 PM 68.0 °F - 23.0 °F 18% 30.06 in 6.2 mi WNW 11.5 mph - N/A   Partly Cloudy
6:50 PM 64.4 °F - 24.8 °F 22% 30.09 in 6.2 mi WNW 6.9 mph - N/A   Partly Cloudy
7:20 PM 59.0 °F - 26.6 °F 29% 30.09 in - Variable 3.5 mph - N/A   Clear
7:50 PM 60.8 °F - 26.6 °F 27% 30.09 in - Variable 2.3 mph - N/A   Clear
8:20 PM 60.8 °F - 26.6 °F 27% 30.12 in - WSW 4.6 mph - N/A   Clear
8:50 PM 59.0 °F - 28.4 °F 31% 30.12 in - WNW 10.4 mph - N/A   Clear
9:00 PM 59 °F - 28 °F 19%  in 12 mi WNW 10.4 mph - -  
9:20 PM 57.2 °F - 28.4 °F 33% 30.12 in - NNW 10.4 mph - N/A   Clear
9:50 PM 53.6 °F - 28.4 °F 38% 30.12 in - NNW 8.1 mph - N/A   Clear
10:20 PM 53.6 °F - 28.4 °F 38% 30.12 in - West 3.5 mph - N/A   Clear
10:50 PM 51.8 °F - 28.4 °F 41% 30.12 in - SW 4.6 mph - N/A   Clear
11:20 PM 51.8 °F - 26.6 °F 38% 30.12 in - SW 6.9 mph - N/A   Clear
11:50 PM 46.4 °F 43.5 °F 28.4 °F 50% 30.15 in - Variable 5.8 mph - N/A   Clear